Location: *
(48.8489°N, 2.3218°E)
Time: 16:45:59
(UTC+00:00)

EO 1 Del DPAF - Pass Details

Date: 23 August 2019
Orbit: 516 x 522 km, 98.0° (Epoch: 21 September)

Event Time Altitude Azimuth Distance (km) Brightness Sun altitude
Rises 21:21:31 0° 13° (NNE) 2,655 7.3 -21.2°
Reaches altitude 10° 21:23:38 10° 13° (NNE) 1,761 6.4 -21.4°
Maximum altitude 21:27:25 86° 287° (WNW) 526 3.1 -21.8°
Enters shadow 21:27:40 77° 214° (SW) 537 3.1 -21.8°
